Погода в Новом

Россия / Республика Татарстан     55°42′15″N   52°39′37″E
темп.,
°C
ветер,
м/с
пор.,
м/с
влажн.,
%
обл.,
%
осадки,
мм/ч
давл.,
гПа
погр.,
м
18 января, пн
пн1800:00−23з239813 0.0 101720
03:00−25з129919 0.0 101920
06:00−26з1110044 0.0 102019
09:00−25ююз129727 0.0 102120
12:00−21с129527 0.0 1022102
15:00−24св119740 0.0 102220
18:00−25юв119761 0.0 102220
21:00−24в129680 0.0 102120
19 января, вт
вт1900:00−23всв2397100 0.0 102150
03:00−22всв3597100 0.0 1020150
06:00−21всв2496100 0.0 1019167
09:00−19св4596100 0.1 1018237
12:00−17всв3596100 0.9 1016254
15:00−16св2396100 2.0 1014210
18:00−16всв1197100 0.5 101422
21:00−16зсз1197100 0.9 101320
20 января, ср
ср2000:00−16з1297100 0.3 101342
03:00−17з2397100 0.4 101358
06:00−17зюз2497100 0.3 1013109
09:00−17зюз4696100 0.6 1013262
12:00−16зюз4794100 0.3 1013430
15:00−16з5895100 0.6 1014481
18:00−16з5995100 0.5 1015439
21:00−17з5893100 0.9 1016392
21 января, чт
чт2100:00−19з489797 0.1 1016217
03:00−19з489793 0.2 1017233
06:00−18з4896100 0.1 1018234
09:00−18з589599 0.2 1019263
12:00−16зюз589597 0.1 1020308
15:00−17зюз5109598 0.1 1019259
18:00−17зюз51194100 0.0 1019281
21:00−16юз61194100 0.1 1016299
22 января, пт
пт2200:00−14ююз71689100 0.0 1012444
03:00−13юз91693100 1.5 1007824
06:00−12юз81592100 2.0 1005666
09:00−9зюз71293100 2.9 1004672
12:00−7з5993100 0.3 1004545
15:00−9сз2395100 0.4 100626
18:00−14ссз349368 0.0 101034
21:00−17сз239344 0.0 101320